This demonstration page uses our WeatherBlox Daily Observations layout. Learn more.

Left ArrowRight Arrow

30.21309, -93.2044

Hourly Observations for August 2, 2022

Temp ( °F °C ) Dew Point ( °F °C ) Humidity (%) Winds ( mph kmh ) Pressure ( in mb ) Visibility ( mi km ) Precip ( " mm )
12:15 am 00:15 Clear 78 25.3 75 23.9 92 92 S 3 6 30.05 1018 10 16 0.00 0.00
12:35 am 00:35 Clear 78 25.5 75 24 91 91 SSE 5 7 30.05 1018 10 16 0.00 0.00
12:55 am 00:55 Clear 78 25.5 75 24 91 91 S 5 7 30.05 1018 10 16 0.00 0.00
1:15 am 01:15 Clear 79 26 75 24.1 89 89 S 5 7 30.05 1018 10 16 0.00 0.00
1:35 am 01:35 Clear 77 25.2 75 23.7 91 91 S 5 7 30.04 1017 10 16 0.00 0.00
1:55 am 01:55 Clear 78 25.4 75 24 92 92 S 5 7 30.04 1017 10 16 0.00 0.00
2:15 am 02:15 Clear 78 25.6 75 24.1 91 91 S 5 7 30.04 1017 10 16 0.00 0.00
2:35 am 02:35 Clear 77 25.2 75 23.8 92 92 S 3 6 30.04 1017 10 16 0.00 0.00
2:55 am 02:55 Clear 78 25.5 75 23.8 90 90 Calm 30.04 1017 10 16 0.00 0.00
3:15 am 03:15 Clear 77 25.1 75 23.8 93 93 S 3 6 30.04 1017 10 16 0.00 0.00
3:35 am 03:35 Clear 80 26.8 76 24.3 86 86 SSW 5 7 30.04 1017 10 16 0.00 0.00
3:55 am 03:55 Clear 79 26 75 23.9 88 88 S 5 7 30.04 1017 10 16 0.00 0.00
4:15 am 04:15 Clear 77 25 75 23.8 93 93 S 5 7 30.04 1017 10 16 0.00 0.00
4:35 am 04:35 Clear 78 25.3 75 24 93 93 S 5 7 30.04 1017 10 16 0.00 0.00
4:55 am 04:55 Clear 79 25.9 75 24 89 89 S 3 6 30.05 1018 10 16 0.00 0.00
5:15 am 05:15 Clear 77 25.1 75 23.7 92 92 S 3 6 30.06 1018 10 16 0.00 0.00
5:35 am 05:35 Clear 77 24.8 74 23.5 93 93 SSE 3 6 30.06 1018 10 16 0.00 0.00
6:00 am 06:00 Mostly Clear 77 25 73 23 89 89 Calm 30.06 1018 10 16 0.00 0.00
6:50 am 06:50 Partly Cloudy 79 26 75 24 89 89 Calm 30.07 1018 10 16 0.00 0.00
7:55 am 07:55 Partly Cloudy 79 26 77 25 94 94 Calm 30.09 1019 10 16 0.00 0.00
8:55 am 08:55 Partly Cloudy 81 27 79 26 94 94 Calm 30.09 1019 10 16 0.00 0.00
9:47 am 09:47 Partly Cloudy with Thunderstorms 79 26 73 23 84 84 SE 7 11 30.09 1019 10 16 0.00 0.00
10:50 am 10:50 Mostly Cloudy with Thunderstorms 81 27 75 24 84 84 SE 8 13 30.09 1019 10 16 0.00 0.00
11:55 am 11:55 Mostly Cloudy with Thunderstorms 82 28 75 24 79 79 WSW 14 22 30.09 1019 10 16 0.00 0.00
12:55 pm 12:55 Mostly Cloudy with Thunderstorms 84 29 73 23 70 70 SSW 14 22 30.07 1018 10 16 0.00 0.00
1:51 pm 13:51 Partly Cloudy 86 30 75 24 70 70 SSW 8 13 30.05 1018 10 16 0.00 0.00
2:50 pm 14:50 Partly Cloudy 90 32 75 24 63 63 SSW 12 19 30.04 1017 10 16 0.00 0.00
3:49 pm 15:49 Mostly Sunny 88 31 75 24 66 66 SSW 10 17 30.03 1017 10 16 0.00 0.00
4:50 pm 16:50 Partly Cloudy 88 31 75 24 66 66 SSE 12 19 30.02 1017 10 16 0.00 0.00
5:56 pm 17:56 Partly Cloudy 68 20 59 15 73 73 SSE 9 15 30.01 1016 10 16 0.00 0.00
6:49 pm 18:49 Mostly Sunny 86 30 75 24 70 70 S 9 15 30.00 1016 10 16 0.00 0.00
7:46 pm 19:46 Mostly Sunny 84 29 75 24 74 74 SSW 7 11 29.99 1016 10 16 0.00 0.00
8:58 pm 20:58 Mostly Clear 79 26 75 24 89 89 S 6 9 29.98 1015 10 16 0.00 0.00
9:55 pm 21:55 Partly Cloudy 79 26 75 24 89 89 SE 6 9 29.98 1015 10 16 0.00 0.00
10:15 pm 22:15 Partly Cloudy 78 25.7 75 24.1 91 91 ESE 3 6 29.99 1016 10 16 0.00 0.00
10:35 pm 22:35 Partly Cloudy 78 25.7 76 24.2 91 91 ESE 3 6 29.99 1016 10 16 0.00 0.00
10:55 pm 22:55 Clear 78 25.4 75 24.1 93 93 SSE 5 7 29.98 1015 10 16 0.00 0.00
11:15 pm 23:15 Clear 78 25.5 76 24.3 93 93 SSE 5 7 29.98 1015 10 16 0.00 0.00
11:35 pm 23:35 Clear 77 25 75 23.9 94 94 SSE 6 9 29.98 1015 10 16 0.00 0.00
11:55 pm 23:55 Clear 77 25.2 75 24.1 94 94 S 5 7 29.98 1015 10 16 0.00 0.00

Powered by AerisWeather